Fort Knox, KY

8:08 PM EST on December 14, 2019 (GMT -0500)
Godman Army Air Field

Weather History for KFTK - October, 2019

Change the Weather History Date:

Thursday, October 24, 2019

  Actual Average Record
Temperature  
Mean Temperature 56 °F -  
Max Temperature 70 °F 64 °F 80 °F (2000)
Min Temperature 42 °F 44 °F 30 °F (1999)
Degree Days  
Heating Degree Days 9    
Growing Degree Days 6 (Base 50)    
Moisture  
Dew Point 39 °F    
Average Humidity 54    
Maximum Humidity 77    
Minimum Humidity 30    
Precipitation  
Precipitation 0.00 in - - ()
Sea Level Pressure  
Sea Level Pressure 30.24 in    
Wind  
Wind Speed 3 mph (WSW)    
Max Wind Speed 8 mph    
Max Gust Speed -    
Visibility 10 miles    
Events      
Averages and records for this station are not official NWS values.
T = Trace of Precipitation, MM = Missing Value Source: NWS Daily Summary

Daily Weather History Graph

Daily Weather History Graph

Search for Another Location

Airport or City:

Astronomy

Oct. 24, 2019 Rise Set
Actual Time 8:00 AM EDT 6:54 PM EDT
Civil Twilight 7:34 AM EDT 7:21 PM EDT
Nautical Twilight 7:03 AM EDT 7:52 PM EDT
Astronomical Twilight 6:32 AM EDT 8:22 PM EDT
Moon 3:36 AM EDT (10/24) 5:16 PM EDT (10/24)
Length of Visible Light 11h 47m
Length of Day
10h 53m
Waning Crescent, 17% of the Moon is Illuminated
Oct 24
Waning Crescent
Oct 27
New
Nov 4
First Quarter
Nov 12
Full
Nov 19
Last Quarter

Hourly Weather History & Observations

Time (EDT) Temp. Windchill Dew Point Humidity Pressure Visibility Wind Dir Wind Speed Gust Speed Precip Events Conditions
12:56 AM 52.0 °F - 33.4 °F 49% 30.16 in 10.0 mi SSW 4.6 mph - N/A   Clear
1:20 AM 50.0 °F - 33.8 °F 54% 30.18 in 10.0 mi SW 5.8 mph - N/A   Clear
2:56 AM 44.1 °F - 36.3 °F 74% 30.20 in 10.0 mi Calm Calm - N/A   Overcast
3:56 AM 44.4 °F - 36.3 °F 73% 30.20 in 10.0 mi Calm Calm - N/A   Clear
4:56 AM 44.2 °F - 35.1 °F 70% 30.21 in 10.0 mi Calm Calm - N/A   Clear
5:56 AM 44.6 °F - 34.7 °F 68% 30.21 in 10.0 mi Calm Calm - N/A   Clear
6:56 AM 43.5 °F - 35.8 °F 74% 30.24 in 10.0 mi Calm Calm - N/A   Clear
7:56 AM 42.1 °F - 34.7 °F 75% 30.25 in 10.0 mi Calm Calm - N/A   Clear
8:44 AM 46.4 °F 45.2 °F 35.6 °F 66% 30.27 in 10.0 mi SSW 3.5 mph - N/A   Clear
8:56 AM 47.1 °F - 37.0 °F 68% 30.27 in 10.0 mi South 3.5 mph - N/A   Clear
9:39 AM 51.8 °F - 37.4 °F 58% 30.28 in 10.0 mi South 4.6 mph - N/A   Clear
9:56 AM 53.8 °F - 37.0 °F 53% 30.28 in 10.0 mi SSW 5.8 mph - N/A   Clear
10:56 AM 60.4 °F - 38.5 °F 44% 30.28 in 10.0 mi South 4.6 mph - N/A   Clear
11:56 AM 65.8 °F - 38.1 °F 36% 30.28 in 10.0 mi WSW 4.6 mph - N/A   Clear
12:56 PM 68.9 °F - 37.0 °F 31% 30.27 in 10.0 mi SW 5.8 mph - N/A   Clear
1:13 PM 68.0 °F - 35.6 °F 30% 30.25 in 10.0 mi WSW 6.9 mph - N/A   Clear
1:56 PM 70.0 °F - 37.0 °F 30% 30.25 in 10.0 mi SW 5.8 mph - N/A   Clear
2:14 PM 69.8 °F - 39.2 °F 33% 30.23 in 10.0 mi WSW 8.1 mph - N/A   Clear
2:56 PM 70.0 °F - 38.8 °F 32% 30.22 in 10.0 mi WNW 3.5 mph - N/A   Clear
3:56 PM 70.7 °F - 39.4 °F 32% 30.22 in 10.0 mi WNW 5.8 mph - N/A   Clear
4:47 PM 69.8 °F - 39.2 °F 33% 30.20 in 10.0 mi South 4.6 mph - N/A   Clear
4:56 PM 70.0 °F - 39.6 °F 33% 30.20 in 10.0 mi Calm Calm - N/A   Clear
5:56 PM 68.5 °F - 39.7 °F 35% 30.21 in 10.0 mi Calm Calm - N/A   Clear
6:52 PM 60.8 °F - 42.8 °F 52% 30.23 in 10.0 mi Calm Calm - N/A   Clear
6:56 PM 59.5 °F - 43.9 °F 56% 30.23 in 10.0 mi Calm Calm - N/A   Clear
7:53 PM 60.8 °F - 44.6 °F 55% 30.25 in 10.0 mi NW 6.9 mph - N/A   Overcast
7:56 PM 60.6 °F - 44.4 °F 55% 30.25 in 10.0 mi NNW 8.1 mph - N/A   Overcast
8:56 PM 59.4 °F - 45.5 °F 60% 30.26 in 10.0 mi NNW 6.9 mph - N/A   Overcast
9:56 PM 55.9 °F - 45.5 °F 68% 30.27 in 10.0 mi North 4.6 mph - N/A   Clear
10:37 PM 53.6 °F - 46.4 °F 77% 30.29 in 10.0 mi NNW 4.6 mph - N/A   Scattered Clouds
10:56 PM 53.6 °F - 46.6 °F 77% 30.29 in 10.0 mi North 5.8 mph - N/A   Overcast
11:56 PM 54.0 °F - 45.9 °F 74% 30.28 in 10.0 mi NNE 4.6 mph - N/A   Mostly Cloudy